Starlink 30845

operational
NORAD ID: 58207 Int'l Des: 2023-170 Owner: SPXS Country: US Constellation: starlink
LEOCIRCULAR

Über Starlink 30845

Beschreibung wird geladen...

Live-Position

3D-Globus wird geladen...

Nächste Überflüge

Höhenverlauf

Altitude vs Time

uPlot chart will show altitude changes over time

Zweizeiliger Elementsatz

1 58207U 23170B 25352.19818602 -.00000201 00000-0 19454-6 0 9990
2 58207 43.0015 278.5159 0000826 278.1017 81.9731 15.02534542118028
Epoch: 18. Dez. 2025 • Age: 18 hours

Aktueller Status

Höhe 558.5 km
Geschwindigkeit 7.59 km/s
Subsatellitenpunkt 19.32°N, 127.83°W
Startdatum 4. Nov. 2023
Alter 2.1 years
Typ internet

Technische Details

Klassifizierung Payload
Masse 730.00 kg
Trockenmasse 700.00 kg
Gesamtmasse 730.00 kg
Länge 0.30 m
Durchmesser 4.10 m
Spannweite 29.00 m
Form Box + pan
Hersteller SPXS
Bus-Typ Starlink V2M
Phasenstatus In Orbit
Besitzer/Staat SPXS/US

Große Konstellationen

Loading constellations...